Weather History for Pella, IA

Change the Weather History Date:

Sunday, May 26, 2013

  Actual Average (KOXV) Record (KOXV)
Temperature  
Mean Temperature 57 °F -  
Max Temperature 62 °F 74 °F 92 °F (1967)
Min Temperature 52 °F 54 °F 37 °F (1961)
Degree Days  
Heating Degree Days 8    
Growing Degree Days 7 (Base 50)    
Moisture  
Dew Point 53 °F    
Average Humidity 88    
Maximum Humidity 95    
Minimum Humidity 81    
Precipitation  
Precipitation 0.41 in - - ()
Sea Level Pressure  
Sea Level Pressure 30.08 in    
Wind  
Wind Speed 12 mph (ESE)    
Max Wind Speed 23 mph    
Max Gust Speed 30 mph    
Visibility 8 miles    
Events Rain    
Averages and records for this station are not official NWS values.
T = Trace of Precipitation, MM = Missing Value Source: NWS Daily Summary

Daily Weather History Graph

Daily Weather History Graph

Search for Another Location

Airport:

Trip Planner

Search our weather history database for the weather conditions in past years. The results will help you decide how hot, cold, wet, or windy it might be!

Date:

Astronomy

May. 26, 2013 Rise Set
Actual Time 5:43 AM CDT 8:34 PM CDT
Civil Twilight 5:11 AM CDT 9:07 PM CDT
Nautical Twilight 4:29 AM CDT 9:48 PM CDT
Astronomical Twilight 3:42 AM CDT 10:36 PM CDT
Moon 10:22 PM CDT (5/26) 7:13 AM CDT (5/26)
Length of Visible Light 15h 55m
Length of Day
14h 50m
Waning Gibbous, 96% of the Moon is Illuminated
May 26
Waning Gibbous
May 31
Last Quarter
Jun 8
New
Jun 16
First Quarter
Jun 23
Full

Hourly Weather History & Observations

Time (CDT) Temp. Dew Point Humidity Pressure Visibility Wind Dir Wind Speed Gust Speed Precip Events Conditions
12:15 AM 52.7 °F 48.7 °F 86% 30.16 in 10.0 mi ESE 13.8 mph 19.6 mph N/A   Mostly Cloudy
12:35 AM 52.7 °F 49.1 °F 88% 30.16 in 10.0 mi ESE 9.2 mph - N/A   Mostly Cloudy
12:55 AM 52.5 °F 49.1 °F 88% 30.16 in 10.0 mi East 9.2 mph 18.4 mph N/A   Light Drizzle
1:15 AM 52.5 °F 49.3 °F 89% 30.16 in 10.0 mi ESE 11.5 mph 17.3 mph N/A   Mostly Cloudy
1:35 AM 52.7 °F 49.5 °F 89% 30.16 in 10.0 mi ESE 9.2 mph 17.3 mph N/A   Mostly Cloudy
1:55 AM 52.7 °F 49.3 °F 88% 30.15 in 10.0 mi ESE 12.7 mph 19.6 mph N/A   Mostly Cloudy
2:15 AM 52.7 °F 49.5 °F 89% 30.15 in 10.0 mi ESE 10.4 mph 17.3 mph N/A   Mostly Cloudy
2:35 AM 52.7 °F 49.6 °F 89% 30.15 in 10.0 mi ESE 13.8 mph 17.3 mph N/A   Mostly Cloudy
2:55 AM 52.7 °F 49.5 °F 89% 30.12 in 10.0 mi ESE 16.1 mph 21.9 mph N/A   Mostly Cloudy
3:15 AM 52.7 °F 49.5 °F 89% 30.12 in 10.0 mi ESE 13.8 mph 20.7 mph N/A   Mostly Cloudy
3:35 AM 52.7 °F 49.6 °F 89% 30.14 in 10.0 mi East 8.1 mph - N/A   Mostly Cloudy
3:55 AM 52.7 °F 49.6 °F 89% 30.14 in 10.0 mi East 9.2 mph - N/A   Mostly Cloudy
4:15 AM 52.7 °F 49.5 °F 89% 30.14 in 10.0 mi East 10.4 mph - N/A   Mostly Cloudy
4:35 AM 52.7 °F 49.1 °F 88% 30.14 in 10.0 mi ESE 13.8 mph 20.7 mph N/A   Mostly Cloudy
4:55 AM 52.7 °F 48.6 °F 86% 30.14 in 10.0 mi ESE 18.4 mph 28.8 mph N/A   Mostly Cloudy
5:15 AM 52.7 °F 48.4 °F 85% 30.12 in 10.0 mi ESE 16.1 mph 25.3 mph N/A   Overcast
5:35 AM 52.9 °F 48.2 °F 84% 30.12 in 10.0 mi ESE 20.7 mph 28.8 mph N/A   Overcast
5:55 AM 52.9 °F 48.2 °F 84% 30.11 in 10.0 mi SE 19.6 mph 27.6 mph N/A   Mostly Cloudy
6:15 AM 53.6 °F 48.6 °F 83% 30.10 in 10.0 mi SE 23.0 mph 29.9 mph N/A   Mostly Cloudy
6:35 AM 53.8 °F 48.4 °F 82% 30.10 in 10.0 mi SE 17.3 mph 26.5 mph N/A   Mostly Cloudy
6:55 AM 54.1 °F 49.1 °F 83% 30.11 in 10.0 mi SE 16.1 mph 26.5 mph N/A   Mostly Cloudy
7:15 AM 54.5 °F 49.1 °F 82% 30.11 in 10.0 mi SE 18.4 mph 28.8 mph N/A   Mostly Cloudy
7:35 AM 54.5 °F 49.3 °F 83% 30.11 in 10.0 mi SE 17.3 mph 28.8 mph N/A   Mostly Cloudy
7:55 AM 54.9 °F 49.6 °F 83% 30.12 in 10.0 mi SE 16.1 mph 28.8 mph N/A   Overcast
8:15 AM 55.6 °F 50.0 °F 81% 30.12 in 10.0 mi SE 18.4 mph 26.5 mph N/A   Overcast
8:35 AM 55.4 °F 49.6 °F 81% 30.12 in 10.0 mi SE 17.3 mph 24.2 mph N/A   Overcast
8:55 AM 55.4 °F 50.4 °F 83% 30.12 in 10.0 mi SE 18.4 mph 23.0 mph N/A   Mostly Cloudy
9:15 AM 55.4 °F 50.7 °F 84% 30.13 in 10.0 mi SE 15.0 mph - N/A   Mostly Cloudy
9:35 AM 55.6 °F 50.9 °F 84% 30.14 in 10.0 mi ESE 13.8 mph 17.3 mph N/A   Overcast
9:55 AM 55.9 °F 51.3 °F 84% 30.13 in 10.0 mi ESE 13.8 mph 19.6 mph N/A   Overcast
10:15 AM 56.5 °F 51.8 °F 84% 30.13 in 10.0 mi ESE 11.5 mph 17.3 mph N/A   Overcast
10:35 AM 57.4 °F 52.2 °F 83% 30.12 in 10.0 mi ESE 11.5 mph - N/A   Overcast
10:55 AM 58.1 °F 52.9 °F 83% 30.12 in 10.0 mi ESE 9.2 mph 16.1 mph N/A   Overcast
11:15 AM 58.1 °F 53.1 °F 83% 30.11 in 7.0 mi ESE 11.5 mph 17.3 mph N/A   Overcast
11:35 AM 57.6 °F 53.2 °F 85% 30.12 in 10.0 mi ESE 8.1 mph 16.1 mph N/A   Overcast
11:55 AM 57.4 °F 53.2 °F 86% 30.13 in 10.0 mi East 6.9 mph - N/A   Overcast
12:15 PM 57.9 °F 53.4 °F 85% 30.12 in 10.0 mi East 9.2 mph - N/A   Overcast
12:35 PM 57.2 °F 53.1 °F 86% 30.13 in 10.0 mi ENE 5.8 mph - N/A   Overcast
12:55 PM 57.2 °F 53.6 °F 88% 30.11 in 7.0 mi East 10.4 mph - N/A   Overcast
1:15 PM 57.4 °F 53.8 °F 88% 30.09 in 10.0 mi East 11.5 mph 17.3 mph N/A   Overcast
1:35 PM 57.7 °F 54.5 °F 89% 30.08 in 7.0 mi East 9.2 mph 17.3 mph N/A   Overcast
1:55 PM 58.1 °F 54.5 °F 88% 30.09 in 7.0 mi East 9.2 mph 18.4 mph N/A   Overcast
2:15 PM 58.1 °F 54.7 °F 88% 30.10 in 7.0 mi East 9.2 mph - N/A   Overcast
2:35 PM 58.3 °F 55.0 °F 89% 30.09 in 5.0 mi East 11.5 mph 18.4 mph N/A   Overcast
2:55 PM 57.7 °F 54.5 °F 89% 30.09 in 5.0 mi East 9.2 mph 17.3 mph N/A   Overcast
3:15 PM 58.1 °F 55.0 °F 90% 30.06 in 5.0 mi ESE 12.7 mph 18.4 mph N/A   Overcast
3:35 PM 59.7 °F 55.9 °F 87% 30.05 in 5.0 mi ESE 17.3 mph 21.9 mph N/A   Overcast
3:55 PM 61.0 °F 57.4 °F 88% 30.03 in 5.0 mi ESE 15.0 mph 19.6 mph N/A   Overcast
4:15 PM 62.6 °F 57.4 °F 83% 30.03 in 7.0 mi ESE 11.5 mph 20.7 mph N/A   Overcast
4:35 PM 62.1 °F 57.6 °F 85% 30.03 in 7.0 mi ESE 12.7 mph 17.3 mph N/A   Overcast
4:55 PM 62.4 °F 57.9 °F 85% 30.03 in 7.0 mi East 8.1 mph - N/A   Overcast
5:15 PM 61.9 °F 57.6 °F 86% 30.05 in 10.0 mi ENE 4.6 mph - N/A   Overcast
5:35 PM 61.0 °F 57.2 °F 87% 30.04 in 7.0 mi East 6.9 mph - N/A   Overcast
5:55 PM 61.3 °F 57.6 °F 87% 30.04 in 7.0 mi East 8.1 mph - N/A   Overcast
6:15 PM 61.2 °F 57.4 °F 87% 30.04 in 7.0 mi East 6.9 mph - N/A   Overcast
6:35 PM 61.7 °F 57.9 °F 87% 30.02 in 7.0 mi East 8.1 mph - N/A   Overcast
6:55 PM 60.1 °F 56.7 °F 88% 30.00 in 5.0 mi East 9.2 mph 17.3 mph N/A   Overcast
7:15 PM 59.2 °F 56.5 °F 91% 30.01 in 3.0 mi ESE 12.7 mph 16.1 mph N/A   Overcast
7:35 PM 59.2 °F 56.8 °F 92% 30.06 in 4.0 mi NW 19.6 mph 26.5 mph 0.01 in Rain Light Rain
7:55 PM 60.1 °F 57.4 °F 91% 30.00 in 3.0 mi SE 11.5 mph - 0.22 in Rain Heavy Rain
8:15 PM 60.3 °F 58.3 °F 93% 29.98 in 4.0 mi SSE 11.5 mph 16.1 mph 0.15 in Rain Rain
8:35 PM 61.0 °F 59.4 °F 94% 29.94 in 7.0 mi SSE 10.4 mph 16.1 mph 0.19 in Rain Light Rain
8:55 PM 61.5 °F 59.5 °F 93% 29.91 in 10.0 mi East 9.2 mph 21.9 mph 0.19 in Rain Light Rain
9:15 PM 61.7 °F 59.9 °F 94% 29.96 in 10.0 mi South 6.9 mph - N/A   Scattered Clouds
9:35 PM 61.7 °F 59.4 °F 92% 29.96 in 10.0 mi East 3.5 mph - N/A   Mostly Cloudy
9:55 PM 61.2 °F 59.2 °F 93% 29.98 in 7.0 mi North 3.5 mph - N/A   Scattered Clouds
10:15 PM 61.0 °F 59.2 °F 94% 29.99 in 5.0 mi NNE 5.8 mph - N/A   Mostly Cloudy
10:35 PM 60.3 °F 58.5 °F 94% 29.97 in 4.0 mi NE 8.1 mph - N/A   Overcast
10:55 PM 59.9 °F 58.1 °F 94% 29.97 in 5.0 mi NE 6.9 mph - N/A   Overcast
11:15 PM 59.5 °F 58.1 °F 95% 29.97 in 5.0 mi ENE 9.2 mph - N/A   Overcast
11:35 PM 59.5 °F 58.1 °F 95% 29.99 in 5.0 mi ENE 9.2 mph - N/A   Overcast
11:55 PM 59.9 °F 58.1 °F 94% 29.98 in 7.0 mi East 10.4 mph 17.3 mph N/A   Overcast